STARLINK-11693, 63763

Orbit data source: Space-Track

STARLINK-11693, 63763 is a payload satellite owned by SpaceX/Seattle (US) in LEO that was launched on Tue, 29 Apr 2025 UTC via an FALCON 9 launch vehicle from the Air Force Eastern Test Range (AFETR). Payload-class satellites include a variety of spacecraft equipped with specific instruments for various scientific and technological missions. These include communications satellites like Starlink; space stations such as the ISS; scientific satellites like the Hubble; Earth observation satellites from companies like Planet Labs, Umbra, and HawkEye 360; GPS; miniature CubeSats for education and research; and military/defense satellites.

Loading next visibility...
Identifier
63763, 2025-089N
Orbit
LEO
Country
Flag of USUS
Related business
Manufacturer
SpaceX/Seattle
Mission
Operational Commercial Communications
Bus & Motor
STARLINK V2MD, Unknown motor
Mass
960 kg wet, ~910 kg dry
Launch date (UTC)
2025-04-29 (1 year ago)
Launch vehicle
FALCON 9
Launch site
Air Force Eastern Test Range (AFETR)
Object type
Payload
Rocket body
Debris
Shape & HBR
Box + 2 Pan, 18.1 m
Radar Cross Section
36.964 m², Large (>1 m²)

Expand to show TLE details & history
Last TLE update: 19 hours ago

TLE from 19 hours ago
0 STARLINK-11693
1 63763U 25089N   26171.03832296  .00102482  00000-0  79184-3 0  9998
2 63763  42.9979  35.1989 0001693 287.5348  72.5335 15.70854853 66124
Epoch: 2026-06-20T00:55Z
TLE epoch observation values (Epoch: 2026-06-20T00:55:11.103Z)
Latitude
-0°
Longitude
113.14395°
Altitude
355.882 km
Speed
7.698 km/s
True Right ascension
02h 20m 47s
True Declination
0° 00' 00"
Sunlit
Object was in daylight at epoch
Visualization orbit readout
Latitude
Unknown
Longitude
Unknown
Altitude
Unknown
Speed
Unknown
Apparent Right ascension
Unknown
Apparent Declination
Unknown
Sunlit
N/A
Visualization observer readout
Local Sidereal Time
07:17:03
Azimuth
Unknown
Elevation
Unknown
Doppler factor
Unknown
Orbital elements
Apogee altitude
359.575 km
Perigee altitude
357.294 km
Semi-major axis
6,736.572 km
Eccentricity
0.00017
Inclination
42.9979°
RAAN
35.1989°
Arg. of periapsis
287.5348°
True anomaly
72.55201°
Mean anomaly
72.5335°
Eccentric anomaly
72.54275°
Mean motion
3.92541 °/min
Orbital period
91.71 mins
BSTAR
0.00079184
Loading maneuver chart data...
Computing Atmospheric mass density...
Loading historical data...
Loading historical data...
Loading historical data...
Loading historical data...
Loading historical data...
Loading historical data...
Loading historical data...

Documentation

Showing up to 5 results
|